QPF
0.00 0.00 0.00 0.00 0.00 0.00 0.00 0.00 0.01 0.01 0.00 0.00 0.02 0.09 0.10 0.08 0.09 0.10 0.11 0.09 0.06 0.04 0.04 0.04 0.04 0.04 0.04 0.03 0.03 0.02 0.01 0.01 0.01 0.01 0.01 0.01 0.00 0.00 0.00 0.00 0.00 0.00 0.00 0.00
0.00 0.00 0.00 0.00 0.00 0.00 0.00 0.01 0.01 0.01 0.00 0.00 0.01 0.06 0.08 0.09 0.07 0.08 0.07 0.07 0.04 0.04 0.04 0.04 0.04 0.03 0.02 0.02 0.01 0.01 0.01 0.01 0.01 0.01 0.00 0.00 0.00 0.00 0.00 0.00 0.00 0.00 0.00 0.00
0.00 0.00 0.00 0.00 0.00 0.00 0.01 0.01 0.01 0.00 0.00 0.01 0.02 0.08 0.10 0.11 0.06 0.04 0.03 0.03 0.03 0.03 0.03 0.04 0.04 0.02 0.02 0.02 0.01 0.01 0.01 0.01 0.01 0.01 0.01 0.01 0.00 0.00 0.01 0.01 0.01 0.00 0.00 0.00
0.00 0.00 0.00 0.00 0.00 0.00 0.01 0.00 0.00 0.00 0.01 0.05 0.04 0.16 0.18 0.10 0.07 0.04 0.03 0.03 0.02 0.02 0.03 0.03 0.02 0.01 0.00 0.00 0.00 0.00 0.00 0.01 0.01 0.01 0.01 0.01 0.01 0.01 0.01 0.01 0.00 0.00 0.00 0.00
0.00 0.00 0.00 0.00 0.00 0.00 0.00 0.00 0.00 0.01 0.01 0.06 0.05 0.08 0.09 0.06 0.07 0.04 0.03 0.03 0.02 0.01 0.01 0.01 0.00 0.00 0.00 0.00 0.00 0.00 0.02 0.02 0.02 0.01 0.01 0.01 0.01 0.01 0.01 0.00 0.00 0.00 0.00 0.00
0.00 0.00 0.00 0.00 0.00 0.00 0.00 0.00 0.02 0.04 0.09 0.15 0.06 0.05 0.05 0.04 0.04 0.02 0.02 0.03 0.01 0.01 0.00 0.00 0.00 0.00 0.00 0.00 0.00 0.01 0.04 0.04 0.02 0.01 0.01 0.01 0.01 0.00 0.00 0.00 0.00 0.00 0.00 0.00
0.01 0.01 0.01 0.00 0.00 0.00 0.00 0.02 0.08 0.12 0.20 0.16 0.03 0.01 0.01 0.00 0.00 0.00 0.01 0.01 0.01 0.00 0.00 0.00 0.00 0.00 0.00 0.00 0.01 0.02 0.03 0.03 0.01 0.01 0.01 0.00 0.00 0.00 0.00 0.00 0.00 0.00 0.00 0.00
0.00 0.02 0.02 0.01 0.00 0.00 0.00 0.02 0.05 0.06 0.05 0.03 0.02 0.01 0.00 0.00 0.00 0.00 0.00 0.00 0.00 0.00 0.00 0.00 0.00 0.00 0.00 0.01 0.00 0.00 0.01 0.01 0.01 0.00 0.00 0.00 0.00 0.00 0.00 0.00 0.00 0.00 0.00 0.00
0.00 0.01 0.01 0.00 0.00 0.00 0.00 0.01 0.01 0.00 0.01 0.02 0.03 0.01 0.00 0.00 0.00 0.00 0.00 0.00 0.00 0.00 0.00 0.00 0.00 0.00 0.01 0.00 0.00 0.00 0.00 0.00 0.00 0.00 0.00 0.00 0.00 0.00 0.00 0.00 0.00 0.00 0.00 0.00
0.00 0.00 0.00 0.00 0.00 0.00 0.00 0.00 0.00 0.00 0.01 0.02 0.04 0.03 0.01 0.00 0.00 0.00 0.00 0.00 0.00 0.00 0.00 0.00 0.00 0.00 0.00 0.00 0.00 0.00 0.00 0.00 0.00 0.00 0.00 0.00 0.00 0.00 0.00 0.00 0.00 0.00 0.00 0.00
0.00 0.00 0.00 0.00 0.00 0.01 0.00 0.00 0.00 0.00 0.00 0.01 0.05 0.07 0.03 0.00 0.00 0.00 0.00 0.00 0.00 0.00 0.00 0.00 0.00 0.00 0.00 0.00 0.00 0.00 0.00 0.00 0.00 0.00 0.00 0.00 0.00 0.00 0.00 0.00 0.00 0.00 0.00 0.00
0.00 0.00 0.00 0.01 0.01 0.00 0.00 0.00 0.00 0.00 0.00 0.00 0.02 0.02 0.01 0.00 0.00 0.00 0.00 0.00 0.00 0.00 0.00 0.00 0.00 0.00 0.00 0.00 0.00 0.00 0.00 0.00 0.00 0.00 0.00 0.00 0.00 0.00 0.00 0.00 0.00 0.00 0.00 0.00
0.00 0.00 0.00 0.04 0.07 0.04 0.01 0.00 0.00 0.00 0.00 0.00 0.01 0.02 0.01 0.00 0.00 0.00 0.00 0.00 0.00 0.00 0.00 0.00 0.00 0.00 0.00 0.00 0.00 0.00 0.00 0.00 0.00 0.00 0.00 0.00 0.00 0.00 0.00 0.00 0.00 0.00 0.00 0.00
0.00 0.00 0.00 0.05 0.07 0.04 0.02 0.00 0.00 0.00 0.00 0.00 0.01 0.01 0.01 0.00 0.00 0.00 0.00 0.00 0.00 0.00 0.00 0.00 0.00 0.00 0.00 0.00 0.00 0.00 0.00 0.00 0.00 0.00 0.00 0.00 0.00 0.00 0.00 0.00 0.00 0.00 0.00 0.01
0.00 0.00 0.00 0.00 0.00 0.00 0.00 0.00 0.00 0.00 0.00 0.00 0.00 0.01 0.01 0.00 0.00 0.00 0.00 0.00 0.00 0.00 0.00 0.00 0.00 0.00 0.00 0.00 0.00 0.00 0.00 0.00 0.00 0.00 0.00 0.00 0.00 0.00 0.00 0.00 0.00 0.00 0.00 0.00
0.00 0.00 0.00 0.00 0.00 0.00 0.00 0.00 0.00 0.00 0.00 0.00 0.00 0.00 0.00 0.00 0.00 0.00 0.00 0.00 0.00 0.00 0.00 0.00 0.00 0.00 0.00 0.00 0.00 0.00 0.00 0.00 0.00 0.00 0.00 0.00 0.00 0.00 0.00 0.00 0.00 0.00 0.00 0.00
0.01 0.01 0.00 0.00 0.01 0.00 0.00 0.00 0.00 0.00 0.00 0.00 0.00 0.00 0.00 0.00 0.00 0.00 0.00 0.00 0.00 0.00 0.00 0.00 0.00 0.00 0.00 0.00 0.00 0.00 0.00 0.00 0.00 0.00 0.00 0.00 0.00 0.00 0.00 0.00 0.00 0.00 0.00 0.01
0.00 0.00 0.00 0.00 0.00 0.00 0.00 0.00 0.00 0.00 0.00 0.00 0.00 0.00 0.00 0.00 0.00 0.00 0.00 0.00 0.00 0.00 0.00 0.00 0.00 0.00 0.00 0.00 0.00 0.00 0.00 0.00 0.00 0.00 0.00 0.00 0.00 0.00 0.00 0.00 0.00 0.00 0.01 0.01
0.00 0.00 0.00 0.00 0.00 0.01 0.01 0.01 0.01 0.01 0.02 0.02 0.00 0.00 0.00 0.00 0.00 0.00 0.00 0.00 0.00 0.00 0.00 0.00 0.00 0.00 0.00 0.00 0.00 0.00 0.00 0.00 0.00 0.00 0.00 0.00 0.00 0.00 0.00 0.00 0.00 0.01 0.01 0.01
0.01 0.01 0.00 0.00 0.00 0.01 0.03 0.04 0.02 0.02 0.03 0.01 0.00 0.00 0.00 0.00 0.00 0.00 0.00 0.00 0.00 0.00 0.00 0.00 0.00 0.00 0.00 0.00 0.00 0.00 0.00 0.00 0.00 0.00 0.00 0.00 0.00 0.00 0.00 0.00 0.00 0.00 0.01 0.01
0.05 0.03 0.01 0.00 0.01 0.01 0.04 0.05 0.04 0.05 0.05 0.02 0.02 0.02 0.01 0.01 0.00 0.00 0.00 0.00 0.00 0.00 0.00 0.00 0.00 0.00 0.00 0.00 0.00 0.00 0.00 0.00 0.00 0.00 0.00 0.00 0.00 0.00 0.00 0.00 0.00 0.01 0.01 0.01
0.06 0.04 0.02 0.02 0.04 0.04 0.04 0.06 0.10 0.10 0.04 0.02 0.01 0.01 0.01 0.01 0.00 0.00 0.00 0.00 0.00 0.00 0.00 0.00 0.00 0.00 0.00 0.00 0.00 0.00 0.00 0.00 0.00 0.00 0.00 0.00 0.00 0.00 0.00 0.00 0.00 0.01 0.01 0.01
0.03 0.03 0.03 0.03 0.05 0.07 0.07 0.06 0.07 0.06 0.03 0.03 0.01 0.01 0.01 0.00 0.00 0.00 0.00 0.00 0.00 0.00 0.00 0.00 0.00 0.00 0.00 0.00 0.00 0.00 0.00 0.00 0.00 0.00 0.00 0.00 0.00 0.00 0.00 0.00 0.00 0.01 0.02 0.02
0.03 0.02 0.01 0.01 0.02 0.04 0.04 0.03 0.02 0.02 0.02 0.01 0.01 0.00 0.00 0.00 0.00 0.00 0.00 0.00 0.00 0.00 0.00 0.00 0.00 0.00 0.00 0.00 0.00 0.00 0.00 0.00 0.00 0.00 0.00 0.00 0.00 0.00 0.00 0.00 0.00 0.01 0.01 0.02
0.01 0.01 0.00 0.01 0.02 0.02 0.03 0.02 0.01 0.01 0.00 0.00 0.00 0.00 0.00 0.00 0.00 0.00 0.00 0.00 0.00 0.00 0.00 0.00 0.00 0.00 0.00 0.00 0.00 0.00 0.00 0.00 0.00 0.00 0.00 0.00 0.00 0.00 0.00 0.00 0.01 0.00 0.01 0.01
0.01 0.00 0.01 0.03 0.03 0.05 0.05 0.03 0.01 0.00 0.00 0.00 0.00 0.00 0.00 0.00 0.00 0.00 0.00 0.00 0.00 0.00 0.00 0.00 0.00 0.00 0.00 0.00 0.00 0.00 0.00 0.00 0.00 0.01 0.01 0.00 0.00 0.00 0.00 0.00 0.00 0.01 0.00 0.00
MSLP
1009.10 1009.26 1009.28 1009.24 1009.25 1009.39 1009.73 1010.29 1011.03 1011.84 1012.60 1013.19 1013.50 1013.48 1013.14 1012.52 1011.74 1010.95 1010.28 1009.82 1009.65 1009.77 1010.15 1010.71 1011.36 1012.02 1012.61 1013.09 1013.47 1013.75 1013.97 1014.17 1014.38 1014.61 1014.87 1015.14 1015.39 1015.60 1015.77 1015.88 1015.95 1016.00 1016.05 1016.12
1009.20 1009.28 1009.23 1009.15 1009.15 1009.33 1009.74 1010.39 1011.21 1012.09 1012.87 1013.43 1013.67 1013.55 1013.08 1012.35 1011.50 1010.69 1010.05 1009.68 1009.62 1009.88 1010.38 1011.04 1011.74 1012.39 1012.94 1013.35 1013.63 1013.83 1014.00 1014.17 1014.38 1014.64 1014.94 1015.23 1015.49 1015.70 1015.83 1015.90 1015.92 1015.93 1015.96 1016.03
1009.06 1009.06 1008.96 1008.86 1008.89 1009.13 1009.64 1010.40 1011.32 1012.26 1013.07 1013.62 1013.81 1013.60 1013.05 1012.26 1011.38 1010.58 1009.99 1009.70 1009.75 1010.11 1010.69 1011.39 1012.09 1012.70 1013.16 1013.48 1013.67 1013.80 1013.92 1014.08 1014.30 1014.60 1014.93 1015.27 1015.56 1015.77 1015.89 1015.93 1015.92 1015.90 1015.91 1015.97
1008.68 1008.61 1008.47 1008.39 1008.49 1008.84 1009.47 1010.36 1011.38 1012.40 1013.25 1013.79 1013.94 1013.69 1013.09 1012.26 1011.37 1010.58 1010.04 1009.82 1009.93 1010.34 1010.95 1011.64 1012.29 1012.83 1013.21 1013.43 1013.55 1013.62 1013.72 1013.89 1014.15 1014.50 1014.89 1015.27 1015.60 1015.82 1015.94 1015.97 1015.94 1015.90 1015.89 1015.95
1008.15 1008.01 1007.86 1007.83 1008.02 1008.50 1009.28 1010.30 1011.43 1012.52 1013.40 1013.94 1014.06 1013.76 1013.12 1012.27 1011.37 1010.60 1010.08 1009.88 1010.02 1010.43 1011.02 1011.67 1012.26 1012.72 1013.02 1013.18 1013.26 1013.32 1013.43 1013.64 1013.96 1014.37 1014.83 1015.26 1015.62 1015.87 1015.99 1016.00 1015.96 1015.90 1015.88 1015.93
1007.58 1007.40 1007.27 1007.30 1007.60 1008.21 1009.13 1010.26 1011.48 1012.61 1013.50 1014.02 1014.10 1013.76 1013.08 1012.20 1011.29 1010.51 1009.99 1009.79 1009.91 1010.29 1010.83 1011.42 1011.94 1012.35 1012.60 1012.74 1012.82 1012.91 1013.07 1013.35 1013.75 1014.24 1014.75 1015.24 1015.63 1015.89 1016.01 1016.02 1015.96 1015.88 1015.84 1015.87
1007.15 1006.94 1006.83 1006.94 1007.34 1008.06 1009.06 1010.27 1011.52 1012.66 1013.51 1013.98 1014.01 1013.61 1012.89 1011.97 1011.03 1010.24 1009.70 1009.47 1009.55 1009.88 1010.36 1010.89 1011.37 1011.75 1012.00 1012.17 1012.30 1012.46 1012.71 1013.08 1013.56 1014.12 1014.69 1015.20 1015.61 1015.87 1015.98 1015.98 1015.90 1015.80 1015.74 1015.75
1006.96 1006.75 1006.68 1006.85 1007.31 1008.08 1009.12 1010.33 1011.55 1012.62 1013.39 1013.77 1013.72 1013.25 1012.47 1011.52 1010.57 1009.75 1009.19 1008.93 1008.96 1009.24 1009.68 1010.17 1010.63 1011.02 1011.32 1011.56 1011.78 1012.05 1012.40 1012.86 1013.42 1014.02 1014.62 1015.15 1015.55 1015.79 1015.88 1015.85 1015.75 1015.64 1015.55 1015.54
1007.09 1006.89 1006.86 1007.06 1007.54 1008.31 1009.30 1010.42 1011.53 1012.47 1013.11 1013.36 1013.20 1012.67 1011.85 1010.88 1009.92 1009.10 1008.53 1008.25 1008.26 1008.51 1008.91 1009.39 1009.87 1010.30 1010.67 1011.00 1011.34 1011.72 1012.18 1012.72 1013.32 1013.95 1014.55 1015.05 1015.42 1015.63 1015.68 1015.63 1015.51 1015.37 1015.27 1015.24
1007.50 1007.34 1007.33 1007.53 1007.98 1008.67 1009.55 1010.51 1011.43 1012.18 1012.64 1012.75 1012.48 1011.89 1011.05 1010.09 1009.16 1008.38 1007.84 1007.57 1007.58 1007.82 1008.22 1008.71 1009.22 1009.70 1010.16 1010.60 1011.04 1011.52 1012.06 1012.65 1013.28 1013.89 1014.45 1014.90 1015.21 1015.37 1015.39 1015.31 1015.17 1015.03 1014.92 1014.88
1008.08 1007.97 1007.99 1008.17 1008.54 1009.10 1009.79 1010.53 1011.21 1011.73 1011.99 1011.95 1011.60 1010.97 1010.15 1009.25 1008.40 1007.70 1007.23 1007.01 1007.05 1007.30 1007.72 1008.24 1008.79 1009.33 1009.87 1010.39 1010.92 1011.46 1012.04 1012.64 1013.25 1013.81 1014.30 1014.68 1014.92 1015.02 1015.01 1014.91 1014.77 1014.63 1014.54 1014.50
1008.67 1008.63 1008.67 1008.81 1009.08 1009.47 1009.94 1010.43 1010.86 1011.14 1011.21 1011.04 1010.62 1009.99 1009.24 1008.45 1007.72 1007.14 1006.77 1006.64 1006.74 1007.03 1007.48 1008.02 1008.60 1009.19 1009.77 1010.35 1010.92 1011.49 1012.07 1012.65 1013.19 1013.68 1014.08 1014.38 1014.55 1014.61 1014.57 1014.46 1014.34 1014.23 1014.16 1014.14
1009.14 1009.17 1009.22 1009.31 1009.47 1009.70 1009.95 1010.20 1010.38 1010.44 1010.34 1010.06 1009.61 1009.03 1008.38 1007.72 1007.16 1006.73 1006.50 1006.47 1006.64 1006.99 1007.46 1008.01 1008.61 1009.22 1009.82 1010.41 1010.98 1011.55 1012.09 1012.61 1013.08 1013.48 1013.80 1014.01 1014.13 1014.15 1014.10 1014.01 1013.92 1013.84 1013.81 1013.82
1009.38 1009.48 1009.54 1009.60 1009.67 1009.74 1009.81 1009.84 1009.81 1009.69 1009.46 1009.11 1008.66 1008.14 1007.60 1007.10 1006.70 1006.44 1006.35 1006.43 1006.68 1007.06 1007.55 1008.11 1008.70 1009.30 1009.89 1010.46 1011.01 1011.54 1012.03 1012.48 1012.87 1013.20 1013.44 1013.60 1013.68 1013.69 1013.65 1013.59 1013.54 1013.50 1013.50 1013.54
1009.38 1009.53 1009.62 1009.66 1009.66 1009.62 1009.54 1009.41 1009.22 1008.96 1008.63 1008.23 1007.80 1007.35 1006.92 1006.57 1006.32 1006.20 1006.23 1006.41 1006.72 1007.13 1007.63 1008.18 1008.75 1009.32 1009.88 1010.42 1010.94 1011.41 1011.85 1012.24 1012.57 1012.84 1013.04 1013.16 1013.23 1013.25 1013.23 1013.21 1013.20 1013.20 1013.23 1013.28
1009.18 1009.37 1009.49 1009.53 1009.50 1009.39 1009.22 1008.99 1008.69 1008.33 1007.93 1007.51 1007.08 1006.69 1006.35 1006.10 1005.96 1005.95 1006.06 1006.30 1006.64 1007.07 1007.56 1008.09 1008.63 1009.18 1009.70 1010.21 1010.69 1011.14 1011.54 1011.90 1012.19 1012.43 1012.61 1012.74 1012.81 1012.85 1012.87 1012.88 1012.90 1012.93 1012.97 1013.01
1008.87 1009.09 1009.24 1009.30 1009.27 1009.15 1008.94 1008.65 1008.29 1007.88 1007.43 1006.98 1006.55 1006.17 1005.87 1005.67 1005.58 1005.62 1005.77 1006.03 1006.38 1006.80 1007.27 1007.77 1008.29 1008.81 1009.32 1009.81 1010.28 1010.72 1011.11 1011.46 1011.76 1012.01 1012.20 1012.34 1012.45 1012.51 1012.56 1012.59 1012.62 1012.65 1012.67 1012.68
1008.55 1008.79 1008.96 1009.06 1009.06 1008.97 1008.77 1008.47 1008.09 1007.65 1007.17 1006.68 1006.22 1005.82 1005.50 1005.28 1005.19 1005.21 1005.34 1005.58 1005.90 1006.30 1006.75 1007.23 1007.73 1008.24 1008.75 1009.25 1009.73 1010.18 1010.60 1010.98 1011.31 1011.59 1011.82 1012.00 1012.13 1012.22 1012.28 1012.32 1012.33 1012.33 1012.31 1012.27
1008.29 1008.53 1008.73 1008.87 1008.93 1008.88 1008.73 1008.46 1008.09 1007.64 1007.13 1006.60 1006.09 1005.63 1005.25 1004.97 1004.81 1004.76 1004.84 1005.02 1005.30 1005.65 1006.07 1006.53 1007.03 1007.54 1008.07 1008.59 1009.11 1009.60 1010.07 1010.49 1010.87 1011.20 1011.47 1011.68 1011.84 1011.94 1012.00 1012.02 1012.00 1011.95 1011.87 1011.77
1008.10 1008.32 1008.54 1008.73 1008.85 1008.87 1008.78 1008.57 1008.24 1007.80 1007.28 1006.71 1006.14 1005.60 1005.13 1004.75 1004.50 1004.36 1004.36 1004.47 1004.68 1004.99 1005.37 1005.82 1006.31 1006.84 1007.38 1007.94 1008.49 1009.04 1009.55 1010.03 1010.45 1010.82 1011.13 1011.37 1011.54 1011.64 1011.68 1011.66 1011.59 1011.48 1011.34 1011.18
1007.92 1008.13 1008.36 1008.59 1008.77 1008.88 1008.87 1008.73 1008.45 1008.04 1007.53 1006.94 1006.32 1005.71 1005.15 1004.68 1004.33 1004.10 1004.00 1004.04 1004.19 1004.45 1004.80 1005.22 1005.71 1006.24 1006.80 1007.38 1007.96 1008.53 1009.08 1009.59 1010.05 1010.45 1010.77 1011.02 1011.19 1011.27 1011.27 1011.21 1011.09 1010.92 1010.73 1010.53
1007.70 1007.88 1008.12 1008.39 1008.63 1008.81 1008.89 1008.84 1008.63 1008.28 1007.80 1007.22 1006.58 1005.93 1005.32 1004.78 1004.35 1004.04 1003.87 1003.84 1003.94 1004.15 1004.46 1004.86 1005.33 1005.84 1006.39 1006.96 1007.54 1008.12 1008.67 1009.18 1009.65 1010.04 1010.36 1010.59 1010.74 1010.79 1010.75 1010.65 1010.48 1010.28 1010.05 1009.83
1007.38 1007.53 1007.77 1008.06 1008.36 1008.61 1008.78 1008.82 1008.70 1008.43 1008.02 1007.49 1006.88 1006.24 1005.61 1005.05 1004.58 1004.24 1004.02 1003.95 1004.00 1004.18 1004.45 1004.81 1005.23 1005.70 1006.21 1006.74 1007.27 1007.81 1008.32 1008.79 1009.22 1009.58 1009.86 1010.06 1010.16 1010.18 1010.10 1009.96 1009.77 1009.55 1009.32 1009.11
1006.93 1007.07 1007.30 1007.61 1007.94 1008.26 1008.51 1008.64 1008.63 1008.46 1008.14 1007.70 1007.16 1006.58 1006.00 1005.47 1005.02 1004.68 1004.46 1004.37 1004.41 1004.54 1004.77 1005.07 1005.43 1005.83 1006.26 1006.70 1007.15 1007.59 1008.01 1008.41 1008.76 1009.05 1009.27 1009.41 1009.47 1009.44 1009.34 1009.18 1008.98 1008.77 1008.56 1008.39
1006.40 1006.52 1006.75 1007.07 1007.44 1007.80 1008.12 1008.34 1008.43 1008.37 1008.17 1007.84 1007.42 1006.95 1006.46 1006.01 1005.63 1005.34 1005.15 1005.08 1005.10 1005.21 1005.39 1005.63 1005.90 1006.20 1006.51 1006.83 1007.15 1007.46 1007.76 1008.04 1008.28 1008.47 1008.61 1008.68 1008.68 1008.61 1008.49 1008.32 1008.13 1007.95 1007.79 1007.67
1005.89 1006.01 1006.23 1006.55 1006.94 1007.34 1007.71 1008.00 1008.18 1008.23 1008.15 1007.95 1007.66 1007.32 1006.97 1006.63 1006.35 1006.15 1006.02 1005.98 1006.01 1006.10 1006.24 1006.40 1006.57 1006.75 1006.92 1007.10 1007.26 1007.42 1007.56 1007.70 1007.81 1007.88 1007.92 1007.91 1007.85 1007.75 1007.60 1007.44 1007.27 1007.12 1007.01 1006.96
Thickness
5812 5797 5789 5800 5808 5804 5797 5785 5775 5781 5796 5787 5772 5758 5753 5756 5757 5758 5764 5764 5761 5762 5765 5766 5764 5762 5759 5754 5751 5749 5745 5743 5740 5737 5734 5730 5727 5726 5724 5721 5717 5713 5708 5705
5802 5795 5808 5818 5815 5807 5797 5784 5779 5784 5794 5786 5768 5754 5752 5753 5756 5759 5762 5760 5758 5757 5758 5759 5759 5758 5755 5752 5749 5746 5743 5741 5738 5736 5732 5729 5725 5723 5722 5719 5714 5710 5706 5702
5801 5812 5824 5816 5808 5798 5792 5784 5784 5783 5791 5785 5765 5748 5749 5753 5758 5762 5766 5765 5762 5758 5755 5755 5755 5755 5753 5750 5748 5748 5743 5740 5737 5734 5731 5728 5723 5719 5717 5714 5711 5708 5704 5700
5812 5822 5819 5810 5805 5801 5786 5800 5796 5788 5776 5757 5757 5725 5739 5749 5752 5755 5761 5764 5764 5763 5759 5757 5756 5755 5754 5752 5751 5748 5744 5740 5736 5732 5727 5722 5717 5713 5712 5711 5709 5706 5702 5699
5807 5818 5812 5805 5809 5809 5800 5808 5795 5778 5761 5748 5747 5731 5735 5751 5745 5754 5763 5767 5769 5767 5764 5761 5760 5758 5757 5756 5753 5749 5743 5738 5734 5730 5725 5719 5715 5713 5711 5708 5705 5702 5701 5698
5814 5825 5819 5813 5820 5819 5814 5799 5778 5760 5738 5718 5746 5740 5737 5753 5757 5762 5769 5771 5772 5772 5769 5766 5765 5762 5759 5758 5754 5749 5742 5735 5732 5727 5723 5718 5713 5709 5705 5702 5699 5698 5698 5697
5797 5800 5806 5812 5804 5811 5804 5777 5741 5718 5708 5718 5763 5760 5757 5778 5786 5783 5778 5776 5777 5776 5772 5767 5764 5761 5758 5756 5753 5748 5741 5734 5730 5726 5721 5717 5712 5707 5703 5700 5698 5696 5693 5692
5780 5771 5789 5802 5802 5796 5795 5785 5752 5734 5735 5748 5764 5761 5773 5795 5798 5796 5791 5786 5782 5778 5775 5770 5767 5764 5760 5756 5752 5747 5740 5733 5729 5725 5720 5716 5711 5706 5704 5700 5696 5693 5689 5687
5785 5780 5804 5813 5821 5811 5793 5788 5795 5777 5770 5751 5750 5765 5777 5794 5792 5792 5790 5786 5782 5780 5777 5773 5771 5767 5761 5757 5753 5747 5739 5733 5728 5724 5719 5713 5709 5704 5700 5697 5693 5690 5687 5684
5806 5788 5806 5819 5818 5814 5806 5800 5791 5775 5749 5741 5738 5742 5755 5772 5781 5786 5786 5784 5783 5782 5780 5777 5773 5768 5764 5759 5753 5746 5739 5732 5727 5722 5717 5714 5709 5705 5700 5695 5691 5687 5683 5680
5814 5789 5794 5801 5785 5781 5789 5791 5787 5783 5776 5751 5727 5728 5771 5781 5788 5789 5789 5789 5786 5784 5781 5777 5773 5770 5764 5757 5750 5742 5736 5730 5724 5720 5716 5711 5706 5703 5698 5694 5690 5686 5682 5677
5808 5793 5778 5780 5790 5794 5792 5792 5787 5766 5764 5769 5754 5752 5797 5799 5801 5799 5796 5794 5792 5788 5784 5779 5773 5767 5760 5753 5748 5741 5735 5729 5724 5720 5715 5710 5705 5700 5695 5691 5688 5684 5679 5674
5801 5780 5759 5758 5756 5760 5763 5780 5789 5789 5780 5768 5754 5754 5793 5801 5802 5801 5799 5795 5792 5788 5784 5778 5771 5763 5756 5751 5746 5741 5735 5730 5726 5720 5714 5708 5703 5698 5693 5689 5685 5681 5676 5671
5800 5778 5761 5743 5740 5744 5747 5769 5785 5782 5771 5764 5761 5762 5777 5787 5791 5795 5796 5794 5791 5786 5781 5774 5766 5759 5754 5749 5743 5738 5733 5730 5724 5719 5712 5706 5701 5696 5692 5687 5682 5677 5672 5667
5787 5771 5774 5776 5778 5772 5770 5781 5788 5785 5783 5771 5772 5772 5779 5789 5794 5795 5795 5792 5787 5781 5776 5770 5763 5757 5751 5745 5740 5736 5731 5727 5722 5715 5709 5704 5700 5695 5690 5684 5679 5674 5669 5664
5775 5764 5767 5768 5783 5785 5784 5793 5794 5793 5792 5789 5786 5780 5794 5797 5798 5793 5791 5787 5781 5778 5774 5769 5762 5755 5748 5743 5738 5733 5729 5724 5719 5711 5706 5702 5697 5692 5686 5681 5676 5671 5665 5660
5770 5761 5754 5755 5774 5775 5769 5787 5790 5791 5794 5789 5778 5782 5792 5789 5787 5786 5785 5783 5780 5777 5773 5768 5762 5755 5748 5743 5738 5732 5727 5722 5715 5709 5703 5699 5694 5688 5683 5678 5673 5667 5661 5655
5770 5763 5758 5755 5755 5738 5774 5803 5796 5787 5787 5791 5792 5793 5792 5788 5788 5788 5787 5781 5777 5775 5772 5768 5763 5756 5751 5745 5738 5732 5726 5719 5713 5706 5701 5696 5691 5685 5680 5674 5668 5662 5656 5650
5777 5762 5754 5751 5746 5755 5778 5784 5779 5770 5771 5786 5787 5788 5789 5792 5786 5781 5785 5782 5777 5775 5773 5768 5764 5758 5751 5744 5737 5729 5722 5717 5710 5704 5699 5695 5689 5682 5675 5669 5663 5658 5652 5645
5769 5760 5750 5748 5739 5738 5757 5769 5774 5762 5748 5775 5780 5776 5777 5775 5760 5762 5778 5778 5776 5774 5770 5766 5762 5756 5747 5742 5736 5726 5718 5713 5707 5703 5698 5692 5685 5678 5671 5665 5659 5653 5647 5641
5734 5738 5741 5742 5740 5752 5760 5767 5760 5728 5729 5762 5769 5769 5766 5761 5762 5771 5776 5774 5771 5768 5765 5761 5756 5749 5743 5738 5730 5720 5714 5709 5705 5701 5695 5688 5681 5674 5667 5661 5655 5648 5642 5636
5734 5736 5738 5736 5725 5727 5750 5750 5732 5730 5748 5758 5762 5765 5763 5762 5768 5770 5769 5766 5764 5760 5757 5753 5747 5741 5737 5731 5723 5714 5709 5706 5702 5695 5688 5682 5676 5670 5664 5656 5650 5644 5638 5631
5751 5751 5751 5744 5735 5738 5743 5738 5739 5745 5747 5754 5757 5760 5759 5759 5759 5759 5758 5756 5754 5751 5749 5745 5738 5732 5727 5722 5715 5707 5703 5699 5694 5687 5681 5675 5669 5663 5657 5650 5644 5639 5633 5628
5750 5759 5753 5744 5739 5738 5739 5740 5743 5746 5746 5749 5752 5753 5752 5748 5749 5748 5746 5744 5742 5741 5739 5735 5729 5722 5716 5713 5708 5703 5698 5693 5686 5679 5673 5668 5662 5657 5652 5646 5641 5636 5631 5625
5750 5750 5744 5735 5733 5732 5732 5735 5739 5741 5742 5743 5743 5742 5739 5737 5734 5733 5731 5729 5729 5728 5727 5723 5717 5711 5707 5703 5699 5695 5690 5684 5677 5671 5665 5661 5657 5653 5648 5644 5639 5634 5630 5624
5748 5742 5737 5728 5732 5727 5719 5729 5734 5731 5729 5728 5726 5724 5724 5722 5719 5718 5716 5715 5714 5712 5711 5708 5704 5700 5697 5693 5689 5685 5681 5675 5668 5661 5657 5653 5650 5647 5644 5640 5636 5634 5627 5622